Location: Nelson
(41.2830°S, 173.2830°E)
Time: 18:10:25
(UTC+12:00)

Cosmos 1633 - Pass Details

Date: 14 May 2021
Orbit: 460 x 478 km, 82.5° (Epoch: 19 June)

Event Time Altitude Azimuth Distance (km) Brightness Sun altitude
Rises 19:07:36 0° 349° (N) 2,489 6.4 -20.4°
Reaches altitude 10° 19:09:39 10° 347° (NNW) 1,625 5.4 -20.8°
Maximum altitude 19:13:12 72° 261° (W) 503 2.7 -21.4°
Enters shadow 19:14:18 41° 189° (S) 702 3.3 -21.6°
